User: anonymous   Login
Location: Unspecified
(0.0000°N, 0.0000°E)
Time: 16:38:40
(UTC+02:00)
Language:

Cosmos 1536 - Orbit

View from above orbital plane
View from above orbital plane
View from above satellite
View from above satellite

Ground track
Ground track

The orbit data is extracted from the following two-line orbital elements,

1 14699U 84013A   15240.17324220  .00001451  00000-0  10254-3 0  9994
2 14699 082.5234 247.1807 0014120 137.3422 222.8903 15.04092708713995
Epoch (UTC): 28 August 2015 04:09:28
Eccentricity: 0.0014120
inclination: 82.5234°
perigee height: 544 km
apogee height: 564 km
right ascension of ascending node: 247.1807°
argument of perigee: 137.3422°
revolutions per day: 15.04092708
mean anomaly at epoch: 222.8903°
orbit number at epoch: 71399

The dashed part of the orbit path shows where the satellite is in the earth's shadow,  

DLR